When you browse on this site, cookies collect data to enhance your experience and personalize the content and advertising you see.
Visit our Privacy Policy to learn more. By continuing to use the site, you agree to this use of cookies and data.
  • In Hungary
  • List of Countries
  • For 7 days
  • Water Temperature
  • Weather Map
  • News
  • Weather Widgets
  • user-avatar
    Login

    Hourly Weather Zhukovskoe

    Today, 23 October, Wednesday

    Time Temperature Precipitation Wind Pressure Humidity
    00:00 +14°C° 0 mm 2 mps 763 mmHg 62%
    01:00 +14°C° 0 mm 1 mps 763 mmHg 62%
    02:00 +14°C° 0 mm 1 mps 763 mmHg 62%
    03:00 +14°C° 0 mm 1 mps 763 mmHg 62%
    04:00 +13°C° 0 mm 1 mps 763 mmHg 63%
    05:00 +13°C° 0 mm 1 mps 763 mmHg 64%
    06:00 +12°C° 0 mm 1 mps 763 mmHg 66%
    07:00 +14°C° 0 mm 1 mps 763 mmHg 62%
    08:00 +15°C° 0 mm 2 mps 763 mmHg 57%
    09:00 +16°C° 0 mm 2 mps 764 mmHg 53%
    10:00 +17°C° 0 mm 2 mps 763 mmHg 48%
    11:00 +19°C° 0 mm 2 mps 763 mmHg 42%
    12:00 +20°C° 0 mm 2 mps 763 mmHg 37%
    13:00 +21°C° 0 mm 2 mps 763 mmHg 36%
    14:00 +21°C° 0 mm 2 mps 762 mmHg 34%
    15:00 +23°C° 0 mm 2 mps 762 mmHg 33%
    16:00 +20°C° 0 mm 2 mps 762 mmHg 37%
    17:00 +19°C° 0 mm 2 mps 762 mmHg 42%
    18:00 +17°C° 0 mm 2 mps 762 mmHg 46%
    19:00 +17°C° 0 mm 2 mps 762 mmHg 48%
    20:00 +16°C° 0 mm 2 mps 762 mmHg 51%
    21:00 +15°C° 0 mm 2 mps 762 mmHg 53%
    22:00 +15°C° 0 mm 2 mps 762 mmHg 53%
    23:00 +15°C° 0 mm 2 mps 762 mmHg 53%

    Tomorrow, 24 October, Thursday

    Time Temperature Precipitation Wind Pressure Humidity
    00:00 +15°C° 0 mm 2 mps 762 mmHg 54%
    01:00 +14°C° 0 mm 2 mps 762 mmHg 55%
    02:00 +14°C° 0 mm 1 mps 762 mmHg 56%
    03:00 +14°C° 0 mm 1 mps 762 mmHg 57%
    04:00 +14°C° 0 mm 1 mps 762 mmHg 57%
    05:00 +13°C° 0 mm 1 mps 762 mmHg 58%
    06:00 +13°C° 0 mm 1 mps 762 mmHg 59%
    07:00 +14°C° 0 mm 1 mps 762 mmHg 56%
    08:00 +15°C° 0 mm 1 mps 762 mmHg 54%
    09:00 +16°C° 0 mm 1 mps 762 mmHg 51%
    10:00 +19°C° 0 mm 1 mps 762 mmHg 46%
    11:00 +20°C° 0 mm 1 mps 762 mmHg 41%
    12:00 +22°C° 0 mm 1 mps 762 mmHg 36%
    13:00 +22°C° 0 mm 1 mps 761 mmHg 35%
    14:00 +23°C° 0 mm 1 mps 761 mmHg 33%
    15:00 +23°C° 0 mm 1 mps 761 mmHg 32%
    16:00 +22°C° 0 mm 1 mps 761 mmHg 35%
    17:00 +21°C° 0 mm 1 mps 761 mmHg 38%
    18:00 +20°C° 0 mm 1 mps 761 mmHg 41%
    19:00 +18°C° 0 mm 2 mps 761 mmHg 43%
    20:00 +17°C° 0 mm 2 mps 761 mmHg 45%
    21:00 +16°C° 0 mm 2 mps 761 mmHg 47%
    22:00 +16°C° 0 mm 2 mps 761 mmHg 49%
    23:00 +16°C° 0 mm 2 mps 761 mmHg 51%

    Day after tomorrow, 25 October, Friday

    Time Temperature Precipitation Wind Pressure Humidity
    00:00 +15°C° 0 mm 2 mps 761 mmHg 53%
    01:00 +15°C° 0 mm 2 mps 760 mmHg 55%
    02:00 +14°C° 0 mm 2 mps 760 mmHg 58%
    03:00 +14°C° 0 mm 2 mps 760 mmHg 60%
    04:00 +14°C° 0 mm 2 mps 760 mmHg 60%
    05:00 +14°C° 0 mm 2 mps 760 mmHg 60%
    06:00 +14°C° 0 mm 2 mps 760 mmHg 60%
    07:00 +14°C° 0 mm 2 mps 760 mmHg 58%
    08:00 +14°C° 0 mm 3 mps 761 mmHg 57%
    09:00 +16°C° 0 mm 3 mps 761 mmHg 55%
    10:00 +17°C° 0 mm 3 mps 761 mmHg 52%
    11:00 +19°C° 0 mm 3 mps 760 mmHg 48%
    12:00 +20°C° 0 mm 3 mps 760 mmHg 44%
    13:00 +21°C° 0 mm 3 mps 760 mmHg 43%
    14:00 +21°C° 0 mm 3 mps 760 mmHg 41%
    15:00 +21°C° 0 mm 3 mps 760 mmHg 40%
    16:00 +20°C° 0 mm 3 mps 760 mmHg 44%
    17:00 +19°C° 0 mm 3 mps 760 mmHg 48%
    18:00 +17°C° 0 mm 3 mps 760 mmHg 53%
    19:00 +16°C° 0 mm 3 mps 760 mmHg 56%
    20:00 +16°C° 0 mm 3 mps 760 mmHg 59%
    21:00 +14°C° 0 mm 4 mps 761 mmHg 62%
    22:00 +14°C° 0 mm 3 mps 761 mmHg 65%
    23:00 +13°C° 0 mm 3 mps 761 mmHg 67%

    26 October, Saturday

    Time Temperature Precipitation Wind Pressure Humidity
    00:00 +13°C° 0 mm 3 mps 761 mmHg 69%
    01:00 +12°C° 0 mm 3 mps 761 mmHg 70%
    02:00 +12°C° 0 mm 3 mps 761 mmHg 71%
    03:00 +11°C° 0 mm 3 mps 761 mmHg 72%
    04:00 +11°C° 0 mm 3 mps 761 mmHg 73%
    05:00 +11°C° 0 mm 3 mps 761 mmHg 74%
    06:00 +11°C° 0 mm 3 mps 761 mmHg 75%
    07:00 +12°C° 0 mm 3 mps 761 mmHg 72%
    08:00 +13°C° 0 mm 3 mps 762 mmHg 69%
    09:00 +14°C° 0 mm 3 mps 762 mmHg 65%
    10:00 +17°C° 0 mm 3 mps 762 mmHg 59%
    11:00 +18°C° 0 mm 3 mps 762 mmHg 54%
    12:00 +20°C° 0 mm 3 mps 762 mmHg 48%
    13:00 +21°C° 0 mm 3 mps 761 mmHg 45%
    14:00 +21°C° 0 mm 3 mps 761 mmHg 43%
    15:00 +22°C° 0 mm 3 mps 761 mmHg 40%
    16:00 +20°C° 0 mm 3 mps 761 mmHg 44%
    17:00 +19°C° 0 mm 3 mps 761 mmHg 48%
    18:00 +17°C° 0 mm 3 mps 761 mmHg 52%
    19:00 +16°C° 0 mm 3 mps 761 mmHg 57%
    20:00 +16°C° 0 mm 3 mps 761 mmHg 61%
    21:00 +14°C° 0 mm 3 mps 761 mmHg 66%
    22:00 +15°C° 0 mm 2 mps 761 mmHg 70%
    23:00 +14°C° 0 mm 2 mps 761 mmHg 75%

    27 October, Sunday

    Time Temperature Precipitation Wind Pressure Humidity
    00:00 +14°C° 0 mm 2 mps 761 mmHg 79%
    01:00 +14°C° 0 mm 2 mps 761 mmHg 80%
    02:00 +14°C° 0 mm 2 mps 761 mmHg 80%
    03:00 +14°C° 0 mm 2 mps 761 mmHg 81%
    04:00 +14°C° 0 mm 2 mps 761 mmHg 80%
    05:00 +14°C° 0 mm 2 mps 761 mmHg 80%
    06:00 +14°C° 0 mm 2 mps 761 mmHg 79%
    07:00 +14°C° 0 mm 2 mps 761 mmHg 76%
    08:00 +14°C° 0 mm 3 mps 761 mmHg 73%
    09:00 +16°C° 0 mm 3 mps 761 mmHg 69%
    10:00 +18°C° 0 mm 3 mps 761 mmHg 65%
    11:00 +19°C° 0 mm 3 mps 760 mmHg 60%
    12:00 +21°C° 0 mm 3 mps 760 mmHg 55%
    13:00 +21°C° 0 mm 3 mps 760 mmHg 54%
    14:00 +21°C° 0 mm 3 mps 759 mmHg 52%
    15:00 +22°C° 0 mm 3 mps 759 mmHg 51%
    16:00 +20°C° 0 mm 3 mps 759 mmHg 57%
    17:00 +19°C° 0 mm 2 mps 758 mmHg 62%
    18:00 +17°C° 0 mm 2 mps 758 mmHg 68%
    19:00 +17°C° 0 mm 2 mps 758 mmHg 71%
    20:00 +16°C° 0 mm 2 mps 758 mmHg 74%
    21:00 +15°C° 0 mm 2 mps 758 mmHg 77%
    22:00 +15°C° 0 mm 2 mps 758 mmHg 79%
    23:00 +15°C° 0 mm 2 mps 758 mmHg 81%

    28 October, Monday

    Time Temperature Precipitation Wind Pressure Humidity
    00:00 +14°C° 0 mm 1 mps 758 mmHg 82%
    01:00 +14°C° 0 mm 1 mps 758 mmHg 84%
    02:00 +14°C° 0 mm 1 mps 757 mmHg 85%
    03:00 +13°C° 0 mm 1 mps 757 mmHg 86%
    04:00 +13°C° 0 mm 1 mps 757 mmHg 87%
    05:00 +13°C° 0 mm 2 mps 757 mmHg 87%
    06:00 +13°C° 0 mm 2 mps 757 mmHg 88%
    07:00 +14°C° 0 mm 2 mps 757 mmHg 81%
    08:00 +15°C° 0 mm 2 mps 757 mmHg 74%
    09:00 +16°C° 0 mm 3 mps 757 mmHg 68%
    10:00 +18°C° 0 mm 3 mps 757 mmHg 61%
    11:00 +19°C° 0 mm 3 mps 756 mmHg 54%
    12:00 +21°C° 0 mm 4 mps 756 mmHg 46%
    13:00 +21°C° 0 mm 4 mps 756 mmHg 45%
    14:00 +21°C° 0 mm 4 mps 755 mmHg 44%
    15:00 +21°C° 0 mm 4 mps 755 mmHg 42%
    16:00 +20°C° 0 mm 4 mps 755 mmHg 46%
    17:00 +19°C° 0 mm 3 mps 755 mmHg 50%
    18:00 +17°C° 0 mm 3 mps 755 mmHg 54%
    19:00 +17°C° 0 mm 3 mps 755 mmHg 55%
    20:00 +16°C° 0 mm 3 mps 755 mmHg 57%
    21:00 +14°C° 0 mm 3 mps 755 mmHg 58%
    22:00 +14°C° 0 mm 3 mps 755 mmHg 61%
    23:00 +13°C° 0 mm 3 mps 755 mmHg 64%

    29 October, Tuesday

    Time Temperature Precipitation Wind Pressure Humidity
    00:00 +13°C° 0 mm 3 mps 755 mmHg 66%
    01:00 +13°C° 0 mm 3 mps 755 mmHg 68%
    02:00 +13°C° 0 mm 4 mps 755 mmHg 69%
    03:00 +13°C° 0 mm 4 mps 754 mmHg 70%
    04:00 +13°C° 0 mm 4 mps 754 mmHg 71%
    05:00 +13°C° 0 mm 5 mps 754 mmHg 73%
    06:00 +14°C° 0 mm 5 mps 754 mmHg 74%
    07:00 +14°C° 0.2 mm 6 mps 754 mmHg 76%
    08:00 +14°C° 0.2 mm 6 mps 754 mmHg 77%
    09:00 +14°C° 0.2 mm 7 mps 754 mmHg 79%
    10:00 +14°C° 0.6 mm 6 mps 754 mmHg 81%
    11:00 +13°C° 0.6 mm 6 mps 754 mmHg 82%
    12:00 +12°C° 0.6 mm 5 mps 754 mmHg 84%
    13:00 +10°C° 0.5 mm 5 mps 754 mmHg 84%
    14:00 +10°C° 0.5 mm 4 mps 754 mmHg 84%
    15:00 +8°C° 0.5 mm 4 mps 754 mmHg 84%
    16:00 +8°C° 0.6 mm 4 mps 754 mmHg 82%
    17:00 +8°C° 0.6 mm 4 mps 755 mmHg 81%
    18:00 +8°C° 0.6 mm 4 mps 755 mmHg 80%
    19:00 +9°C° 0 mm 3 mps 755 mmHg 78%
    20:00 +9°C° 0 mm 3 mps 756 mmHg 76%
    21:00 +9°C° 0 mm 3 mps 756 mmHg 73%
    22:00 +9°C° 0 mm 3 mps 756 mmHg 71%
    23:00 +9°C° 0 mm 3 mps 756 mmHg 68%
    Show more